Weather Roundup
Issued by NWS Chicago, IL

Home | Current Version | Previous Version | Text Only | Print | Product List | Glossary Off
Versions: 1 2 3 4 5 6 7 8 9 10 11 12 13 14 15 16 17 18 19 20 21 22 23 24 25 26 27 28 29 30 31 32 33 34 35 36 37 38 39 40 41 42 43 44 45 46 47 48 49 50

000
NZUS59 KLOT 210010
HRRLOT

CHICAGO AREA WEATHER ROUNDUP
NATIONAL WEATHER SERVICE CHICAGO/ROMEOVILLE IL
600 PM CST THU NOV 20 2014

NOTE: "FAIR" INDICATES FEW OR NO CLOUDS BELOW 12,000 FEET WITH NO
SIGNIFICANT WEATHER AND/OR OBSTRUCTIONS TO VISIBILITY.

* THESE STATIONS ARE NOT UNDER NWS QUALITY CONTROL. THEY ALSO MAY NOT
  REPORT WEATHER SUCH AS PRECIPITATION OR FOG.

ILZ005-006-012>014-019>023-210100-
NORTHEAST ILLINOIS

CITY           SKY/WX    TMP DP  RH WIND       PRES   REMARKS
OHARE          CLEAR     22   3  44 W12       30.16R WCI  10
6HR MIN TEMP:  22; 6HR MAX TEMP:  27;

MIDWAY           N/A     25   2  37 NW15      30.17R WCI  13
6HR MIN TEMP:  25; 6HR MAX TEMP:  30;

AURORA         CLEAR     20   4  50 W13       30.18R WCI   7
6HR MIN TEMP:  20; 6HR MAX TEMP:  29;

LANSING*       CLEAR     24   4  41 W8G18     30.17R WCI  15
JOLIET*        CLEAR     22   4  45 W9        30.19R WCI  12
WAUKEGAN         N/A     20   2  45 W9G20     30.14R WCI   9
6HR MIN TEMP:  20; 6HR MAX TEMP:  26;

DUPAGE AIRPORT CLEAR     20   2  45 W9        30.17R WCI   9
6HR MIN TEMP:  20; 6HR MAX TEMP:  28;

WHEELING       CLEAR     22   3  44 W12G24    30.18R WCI  10
6HR MIN TEMP:  22; 6HR MAX TEMP:  27;

KANKAKEE*      CLEAR     24   8  51 W8        30.20R WCI  15
MORRIS*        CLEAR     22   7  54 W10       30.19R WCI  11
LEWIS AIRPORT* CLEAR     21   4  47 W12       30.18R WCI  10
NORTHERLY IS     N/A     25   3  38 W13         N/A  WCI  14
$$

WIZ051-052-058>065-066-070>072-210100-
SOUTHEAST WISCONSIN

CITY           SKY/WX    TMP DP  RH WIND       PRES   REMARKS
MILWAUKEE      CLEAR     21  -1  38 NW10G20   30.13R WCI  10
6HR MIN TEMP:  21; 6HR MAX TEMP:  25;

KENOSHA*       CLEAR     19   4  51 W14       30.14R WCI   6
RACINE*        CLEAR     20   0  41 W8        30.15R WCI  10
BURLINGTON     CLEAR     17   4  57 W8        30.14R WCI   6
WAUKESHA       CLEAR     18   1  49 W14G25    30.13R WCI   4
WEST BEND      CLEAR     16   1  53 NW7       30.12R WCI   6
$$

INZ001>003-010>013-019-020-210100-
NORTHWEST INDIANA

CITY           SKY/WX    TMP DP  RH WIND       PRES   REMARKS
GARY*          CLEAR     27   5  39 W15       30.17R WCI  15
MICHIGAN CITY* NOT AVBL
RENSSELAER*    NOT AVBL
VALPARAISO     CLEAR     22   4  46 W13       30.15R WCI  10
$$

LMZ740>746-210100-
SOUTHERN LAKE MICHIGAN

STATION/POSITION TIME  SKY/WX   TEMP WIND        PRES    VSBY
                                AIR  DIR/SP/G
                 (UTC)          (F)  (DEG/KT/KT) (MB)    (MI)
HARRISON CRIB    0000            24  280/ 23/ 29   N/A
BURNHAM HARBOR   0000            25  270/  9/ 19   N/A
CALUMET HARBOR   0000            24  270/  7/ 15 1020.1R
BURNS HARBOR     NOT AVBL
MICHIGAN CITY    0000            27  250/ 29/ 34   N/A
$$

ABBREVIATIONS USED IN REMARKS
   TC - TEMPERATURE IN CELSIUS
  WCI - WIND CHILL INDEX
   HX - HEAT INDEX
  VSB - VISIBILITY
$$



USA.gov is the U.S. government's official web portal to all federal, state and local government web resources and services.